Location: Penum?ka
(16.4840°N, 80.5772°E)
Time: 01:30:07
(UTC+00:00)

GPS 2-15 Rocket1 - Pass Details

Date: 19 May 2025
Orbit: 609 x 655 km, 19.8° (Epoch: 24 June)

Event Time Altitude Azimuth Distance (km) Brightness Sun altitude
Rises 14:16:54 0° 282° (WNW) 2,848 7.9 -17.1°
Reaches altitude 10° 14:19:14 10° 282° (WNW) 1,947 6.8 -17.6°
Maximum altitude 14:23:47 86° 10° (N) 612 2.9 -18.6°
Enters shadow 14:25:23 40° 98° (E) 892 3.4 -18.9°
